Home   Weather   Riverside   Past weeks

Flag for USA Past Weather in Riverside, California, USA — Yesterday and Last 2 Weeks

Now
61 °F

Overcast.


Feels Like: 61 °F
Forecast: 50 / 65 °F
Wind: 8 mph from East

Location: Riverside Municipal Airport

Current Time: Feb 21, 2017 at 10:57:14 am

Latest Report: Feb 21, 2017 at 9:53 am


Visibility: 7 mi

Pressure: 30.28 "Hg

Humidity: 81%

Dew Point: 55 °F

Location of RiversideLocation

Past Weather in Riverside — Graph

°F

Riverside Temperature Yesterday

Maximum temperature yesterday: 64 °F (at 12:53 pm)
Minimum temperature yesterday: 50 °F (at 5:38 am)
Average temperature yesterday: 56 °F

High & Low Weather Summary for the Past Weeks

 TemperatureHumidityPressure
High79 °F (Feb 15, 12:53 pm)100% (Feb 6, 8:05 am)30.30 "Hg (Feb 6, 8:05 am)
Low44 °F (Feb 15, 5:53 am)18% (Feb 15, 12:53 pm)29.46 "Hg (Feb 17, 5:53 pm)
Average58 °F84%29.99 "Hg
* Reported Feb 6 8:05 am — Feb 21 8:53 am, Riverside, Weather by CustomWeather, © 2017

Note: Actual official high and low records may vary slightly from our data, if they occured in-between our weather recording intervals... More about our weather records

Advertising

Riverside Weather History for the Previous 24 Hours

Scroll right to see more
 ConditionsComfort  
Time TempWeatherWind HumidityBarometerVisibility
8:53 am
Tue, Feb 21
60 °FOvercast.No wind83%30.30 "Hg7 mi
7:53 am58 °FOvercast.No wind93%30.28 "Hg8 mi
6:53 am56 °FFog.No wind97%30.27 "Hg6 mi
5:53 am57 °FOvercast.No wind90%30.26 "Hg9 mi
4:53 am57 °FOvercast.No wind93%30.26 "Hg9 mi
3:53 am57 °FOvercast.No wind93%30.26 "Hg9 mi
2:53 am57 °FMostly cloudy.No wind90%30.27 "Hg10 mi
1:53 am57 °FMostly cloudy.No wind93%30.29 "Hg10 mi
12:53 am57 °FMostly cloudy.No wind90%30.28 "Hg10 mi
11:53 pm
Mon, Feb 20
56 °FOvercast.No wind93%30.29 "Hg10 mi
10:53 pm57 °FMostly cloudy.No wind93%30.29 "Hg10 mi
9:53 pm57 °FOvercast.3 mph90%30.28 "Hg10 mi
8:53 pm56 °FMostly cloudy.3 mph93%30.27 "Hg10 mi
7:53 pm57 °FMostly cloudy.6 mph87%30.27 "Hg10 mi
6:53 pm58 °FMostly cloudy.6 mph87%30.25 "Hg10 mi
5:53 pm61 °FOvercast.7 mph78%30.24 "Hg10 mi
4:53 pm62 °FMostly cloudy.10 mph75%30.22 "Hg10 mi
3:53 pm63 °FPartly sunny.3 mph73%30.19 "Hg10 mi
3:00 pm63 °FMostly cloudy.6 mph73%30.22 "Hg10 mi
1:53 pm63 °FOvercast.3 mph70%30.19 "Hg10 mi
12:53 pm64 °FOvercast.3 mph68%30.20 "Hg10 mi
12:03 pm61 °FCloudy.5 mph72%30.26 "Hg10 mi
11:53 am61 °FMostly cloudy.No wind72%30.23 "Hg10 mi
10:53 am60 °FOvercast.No wind72%30.25 "Hg10 mi
Weather by CustomWeather, © 2017

See weather overviewHow to use our weather pages